Location: Berville
(49.1893°N, 2.0748°E)
Time: 19:13:23
(UTC+00:00)

FENGYUN 1C DEB - Pass Details

Date: 07 March 2024
Orbit: 768 x 960 km, 99.0° (Epoch: 13 April)

Event Time Altitude Azimuth Distance (km) Brightness Sun altitude
Exits shadow 19:22:25 23° 79° (ENE) 1,907 ? -16.6°
Maximum altitude 19:23:51 25° 58° (ENE) 1,805 ? -16.9°
Drops below altitude 10° 19:28:29 10° 5° (N) 2,622 ? -17.6°
Sets 19:31:16 0° 353° (N) 3,538 ? -18.0°
